ATLAS 5 CENTAUR DEB, 57590

Orbit data source: Space-Track

ATLAS 5 CENTAUR DEB, 57590 is space debris in HEO originally from a launch on Wed, 17 Oct 2018 UTC launched from the Air Force Eastern Test Range (AFETR). Debris objects in space refer to the collection of defunct objects orbiting the Earth. Examples of debris include non-operational satellites, rocket bodies, and fragments generated from explosions, collisions, or faulty payload assembly.

Loading next visibility...
Identifier
57590, 2018-079HR
Orbit
HEO
Country
Flag of USUS
Related business
Flag of USUnited Launch Alliance/Lockheed Martin (US)
Manufacturer
ULA Decatur
Mission
Spacecraft
Bus & Motor
Unknown
Mass
Unknown
Launch date (UTC)
2018-10-17 (8 years ago)
Launch vehicle
Unknown
Launch site
Air Force Eastern Test Range (AFETR)
Object type
Payload
Rocket body
Debris
Shape & HBR
Unknown shape, 1.1 m
Radar Cross Section
RCS unknown

Expand to show TLE details & history
Last TLE update: 4 months ago

TLE from 4 months ago
0 ATLAS 5 CENTAUR DEB
1 57590U 18079HR  26144.23436488 -.00000104  00000-0  00000-0 0  9992
2 57590  12.0491  90.6701 4919663 196.6835 138.4381  1.56223341 26085
Epoch: 2026-05-24T05:37Z
TLE epoch observation values (Epoch: 2026-05-24T05:37:29.125Z)
Latitude
-0°
Longitude
124.39071°
Altitude
38,610.422 km
Speed
2.24 km/s
True Right ascension
06h 02m 24s
True Declination
0° 00' 00"
Sunlit
Object was in daylight at epoch
Visualization orbit readout
Latitude
Unknown
Longitude
Unknown
Altitude
Unknown
Speed
Unknown
Apparent Right ascension
Unknown
Apparent Declination
Unknown
Sunlit
N/A
Visualization observer readout
Local Sidereal Time
06:10:42
Azimuth
Unknown
Elevation
Unknown
Doppler factor
Unknown
Orbital elements
Apogee altitude
40,433.953 km
Perigee altitude
9,561.981 km
Semi-major axis
31,376.104 km
Eccentricity
0.49197
Inclination
12.0491°
RAAN
90.6701°
Arg. of periapsis
196.6835°
True anomaly
163.30491°
Mean anomaly
138.4381°
Eccentric anomaly
151.77082°
Mean motion
0.39052 °/min
Orbital period
921.84 mins
BSTAR
0
Loading maneuver chart data...
Computing Atmospheric mass density...

Documentation

Showing up to 5 results
|